Time,TemperatureF,DewpointF,PressureIn,WindDirection,WindDirectionDegrees,WindSpeedMPH,WindSpeedGustMPH,Humidity,HourlyPrecipIn,Conditions,Clouds,dailyrainin,SoftwareType,DateUTC
2013-08-25 00:00:00,65.9,0.0,29.89,West,267,4.0,13.0,0,0.00,,,0.00,Weather View 32 v70,2013-08-25 07:00:00,
2013-08-25 00:10:00,65.7,0.0,29.89,West,280,4.0,13.0,0,0.00,,,0.00,Weather View 32 v70,2013-08-25 07:10:00,
2013-08-25 00:18:00,65.7,0.0,29.89,West,280,4.0,13.0,0,0.00,,,0.00,Weather View 32 v70,2013-08-25 07:18:00,
2013-08-25 00:30:00,64.9,0.0,29.89,SW,225,4.0,13.0,0,0.00,,,0.00,Weather View 32 v70,2013-08-25 07:30:00,
2013-08-25 00:40:00,64.4,0.0,29.89,SW,236,6.0,11.0,0,0.00,,,0.00,Weather View 32 v70,2013-08-25 07:40:00,
2013-08-25 00:50:00,64.1,0.0,29.90,WSW,248,5.0,15.0,0,0.00,,,0.00,Weather View 32 v70,2013-08-25 07:50:00,
2013-08-25 01:00:00,64.5,0.0,29.90,SW,217,4.0,15.0,0,0.00,,,0.00,Weather View 32 v70,2013-08-25 08:00:00,
2013-08-25 01:10:00,64.8,0.0,29.90,WSW,252,5.0,15.0,0,0.00,,,0.00,Weather View 32 v70,2013-08-25 08:10:00,
2013-08-25 01:18:00,64.8,0.0,29.90,WSW,252,5.0,15.0,0,0.00,,,0.00,Weather View 32 v70,2013-08-25 08:18:00,
2013-08-25 01:30:00,64.4,0.0,29.90,SW,218,3.0,15.0,0,0.00,,,0.00,Weather View 32 v70,2013-08-25 08:30:00,
2013-08-25 01:40:00,64.7,0.0,29.90,SW,229,5.0,15.0,0,0.00,,,0.00,Weather View 32 v70,2013-08-25 08:40:00,
2013-08-25 01:50:00,64.6,0.0,29.90,West,262,2.0,13.0,0,0.00,,,0.00,Weather View 32 v70,2013-08-25 08:50:00,
2013-08-25 02:00:00,64.5,0.0,29.91,WSW,257,5.0,10.0,0,0.00,,,0.00,Weather View 32 v70,2013-08-25 09:00:00,
2013-08-25 02:10:00,64.5,0.0,29.90,West,262,6.0,10.0,0,0.00,,,0.00,Weather View 32 v70,2013-08-25 09:10:00,
2013-08-25 02:19:00,64.5,0.0,29.90,West,262,6.0,10.0,0,0.00,,,0.00,Weather View 32 v70,2013-08-25 09:19:00,
2013-08-25 02:30:00,64.4,0.0,29.91,SW,225,8.0,12.0,0,0.00,,,0.00,Weather View 32 v70,2013-08-25 09:30:00,
2013-08-25 02:40:00,64.3,0.0,29.91,WSW,238,7.0,13.0,0,0.00,,,0.00,Weather View 32 v70,2013-08-25 09:40:00,
2013-08-25 02:50:00,64.3,0.0,29.91,WSW,239,8.0,13.0,0,0.00,,,0.00,Weather View 32 v70,2013-08-25 09:50:00,
2013-08-25 03:00:00,64.4,0.0,29.91,SW,222,4.0,13.0,0,0.00,,,0.00,Weather View 32 v70,2013-08-25 10:00:00,
2013-08-25 03:10:00,64.4,0.0,29.91,SW,215,4.0,13.0,0,0.00,,,0.00,Weather View 32 v70,2013-08-25 10:10:00,
2013-08-25 03:20:00,64.4,0.0,29.91,SW,236,8.0,13.0,0,0.00,,,0.00,Weather View 32 v70,2013-08-25 10:20:00,
2013-08-25 03:30:00,64.7,0.0,29.91,SW,235,6.0,13.0,0,0.00,,,0.00,Weather View 32 v70,2013-08-25 10:30:00,
2013-08-25 03:40:00,64.3,0.0,29.91,SSW,198,5.0,13.0,0,0.00,,,0.00,Weather View 32 v70,2013-08-25 10:40:00,
2013-08-25 03:50:00,64.4,0.0,29.92,South,176,3.0,11.0,0,0.00,,,0.00,Weather View 32 v70,2013-08-25 10:50:00,
2013-08-25 04:00:00,64.2,0.0,29.92,SSW,198,5.0,11.0,0,0.00,,,0.00,Weather View 32 v70,2013-08-25 11:00:00,
2013-08-25 04:10:00,64.1,0.0,29.92,West,274,2.0,11.0,0,0.00,,,0.00,Weather View 32 v70,2013-08-25 11:10:00,
2013-08-25 04:20:00,64.1,0.0,29.92,SSW,198,9.0,10.0,0,0.00,,,0.00,Weather View 32 v70,2013-08-25 11:20:00,
2013-08-25 04:30:00,64.1,0.0,29.92,WSW,240,5.0,10.0,0,0.00,,,0.00,Weather View 32 v70,2013-08-25 11:30:00,
2013-08-25 04:40:00,64.5,0.0,29.92,WSW,245,0.0,10.0,0,0.00,,,0.00,Weather View 32 v70,2013-08-25 11:40:00,
2013-08-25 04:50:00,64.5,0.0,29.93,WSW,242,1.0,10.0,0,0.00,,,0.00,Weather View 32 v70,2013-08-25 11:50:00,
2013-08-25 05:00:00,64.2,0.0,29.93,SW,231,1.0,10.0,0,0.00,,,0.00,Weather View 32 v70,2013-08-25 12:00:00,
2013-08-25 05:10:00,64.4,0.0,29.93,West,270,3.0,10.0,0,0.00,,,0.00,Weather View 32 v70,2013-08-25 12:10:00,
2013-08-25 05:20:00,64.3,0.0,29.93,WNW,288,5.0,9.0,0,0.00,,,0.00,Weather View 32 v70,2013-08-25 12:20:00,
2013-08-25 05:30:00,64.4,0.0,29.93,SW,236,0.0,7.0,0,0.00,,,0.00,Weather View 32 v70,2013-08-25 12:30:00,
2013-08-25 05:40:00,64.3,0.0,29.93,SW,217,0.0,9.0,0,0.00,,,0.00,Weather View 32 v70,2013-08-25 12:40:00,
2013-08-25 05:50:00,63.9,0.0,29.93,West,267,5.0,9.0,0,0.00,,,0.00,Weather View 32 v70,2013-08-25 12:50:00,
2013-08-25 06:00:00,64.0,0.0,29.93,WSW,252,6.0,10.0,0,0.00,,,0.00,Weather View 32 v70,2013-08-25 13:00:00,
2013-08-25 06:10:00,64.0,0.0,29.93,West,273,3.0,10.0,0,0.00,,,0.00,Weather View 32 v70,2013-08-25 13:10:00,
2013-08-25 06:20:00,64.2,0.0,29.93,SW,226,8.0,12.0,0,0.00,,,0.00,Weather View 32 v70,2013-08-25 13:20:00,
2013-08-25 06:30:00,64.0,0.0,29.94,WSW,252,3.0,12.0,0,0.00,,,0.00,Weather View 32 v70,2013-08-25 13:30:00,
2013-08-25 06:40:00,64.3,0.0,29.94,WSW,252,3.0,12.0,0,0.00,,,0.00,Weather View 32 v70,2013-08-25 13:40:00,
2013-08-25 06:50:00,64.5,0.0,29.95,West,276,3.0,12.0,0,0.00,,,0.00,Weather View 32 v70,2013-08-25 13:50:00,
2013-08-25 07:00:00,64.7,0.0,29.95,WSW,240,7.0,12.0,0,0.00,,,0.00,Weather View 32 v70,2013-08-25 14:00:00,
2013-08-25 07:10:00,64.7,0.0,29.95,WSW,242,4.0,12.0,0,0.00,,,0.00,Weather View 32 v70,2013-08-25 14:10:00,
2013-08-25 07:20:00,64.8,0.0,29.95,WSW,257,5.0,11.0,0,0.00,,,0.00,Weather View 32 v70,2013-08-25 14:20:00,
2013-08-25 07:30:00,65.2,0.0,29.95,WNW,285,4.0,11.0,0,0.00,,,0.00,Weather View 32 v70,2013-08-25 14:30:00,
2013-08-25 07:40:00,66.1,0.0,29.95,WSW,240,3.0,12.0,0,0.00,,,0.00,Weather View 32 v70,2013-08-25 14:40:00,
2013-08-25 07:50:00,66.6,0.0,29.95,SW,217,1.0,12.0,0,0.00,,,0.00,Weather View 32 v70,2013-08-25 14:50:00,
2013-08-25 08:00:00,67.0,0.0,29.95,WNW,288,3.0,12.0,0,0.00,,,0.00,Weather View 32 v70,2013-08-25 15:00:00,
2013-08-25 08:10:00,67.2,0.0,29.95,WSW,250,5.0,12.0,0,0.00,,,0.00,Weather View 32 v70,2013-08-25 15:10:00,
2013-08-25 08:20:00,66.9,0.0,29.95,WSW,252,4.0,12.0,0,0.00,,,0.00,Weather View 32 v70,2013-08-25 15:20:00,
2013-08-25 08:30:00,68.5,0.0,29.95,SW,225,3.0,12.0,0,0.00,,,0.00,Weather View 32 v70,2013-08-25 15:30:00,
2013-08-25 08:40:00,69.8,0.0,29.95,WSW,255,3.0,11.0,0,0.00,,,0.00,Weather View 32 v70,2013-08-25 15:40:00,
2013-08-25 08:50:00,70.8,0.0,29.94,WSW,255,5.0,9.0,0,0.00,,,0.00,Weather View 32 v70,2013-08-25 15:50:00,
2013-08-25 09:00:00,71.5,0.0,29.94,WNW,288,6.0,10.0,0,0.00,,,0.00,Weather View 32 v70,2013-08-25 16:00:00,
2013-08-25 09:10:00,72.1,0.0,29.94,WNW,288,2.0,10.0,0,0.00,,,0.00,Weather View 32 v70,2013-08-25 16:10:00,
2013-08-25 09:20:00,73.0,0.0,29.94,SW,231,8.0,12.0,0,0.00,,,0.00,Weather View 32 v70,2013-08-25 16:20:00,
2013-08-25 09:30:00,74.0,0.0,29.94,SSW,198,5.0,12.0,0,0.00,,,0.00,Weather View 32 v70,2013-08-25 16:30:00,
2013-08-25 09:40:00,75.2,0.0,29.94,WSW,253,5.0,12.0,0,0.00,,,0.00,Weather View 32 v70,2013-08-25 16:40:00,
2013-08-25 09:50:00,76.3,0.0,29.94,SSW,207,8.0,12.0,0,0.00,,,0.00,Weather View 32 v70,2013-08-25 16:50:00,
2013-08-25 10:00:00,76.9,0.0,29.94,South,188,5.0,12.0,0,0.00,,,0.00,Weather View 32 v70,2013-08-25 17:00:00,
2013-08-25 10:10:00,76.6,0.0,29.95,WSW,246,6.0,12.0,0,0.00,,,0.00,Weather View 32 v70,2013-08-25 17:10:00,
2013-08-25 10:20:00,78.7,0.0,29.94,SSW,198,1.0,12.0,0,0.00,,,0.00,Weather View 32 v70,2013-08-25 17:20:00,
2013-08-25 10:30:00,78.3,0.0,29.95,South,187,5.0,12.0,0,0.00,,,0.00,Weather View 32 v70,2013-08-25 17:30:00,
2013-08-25 10:40:00,78.2,0.0,29.94,WSW,253,9.0,12.0,0,0.00,,,0.00,Weather View 32 v70,2013-08-25 17:40:00,
2013-08-25 10:50:00,80.0,0.0,29.95,South,170,4.0,12.0,0,0.00,,,0.00,Weather View 32 v70,2013-08-25 17:50:00,
2013-08-25 11:00:00,79.7,0.0,29.95,SE,138,4.0,13.0,0,0.00,,,0.00,Weather View 32 v70,2013-08-25 18:00:00,
2013-08-25 11:10:00,80.7,0.0,29.95,WSW,256,3.0,13.0,0,0.00,,,0.00,Weather View 32 v70,2013-08-25 18:10:00,
2013-08-25 11:20:00,81.1,0.0,29.95,WSW,239,3.0,13.0,0,0.00,,,0.00,Weather View 32 v70,2013-08-25 18:20:00,
2013-08-25 11:30:00,81.6,0.0,29.94,SE,146,4.0,13.0,0,0.00,,,0.00,Weather View 32 v70,2013-08-25 18:30:00,
2013-08-25 11:40:00,82.4,0.0,29.94,SSW,195,7.0,13.0,0,0.00,,,0.00,Weather View 32 v70,2013-08-25 18:40:00,
2013-08-25 11:50:00,82.9,0.0,29.94,WSW,256,5.0,13.0,0,0.00,,,0.00,Weather View 32 v70,2013-08-25 18:50:00,
2013-08-25 12:00:00,83.2,0.0,29.94,SSW,201,11.0,14.0,0,0.00,,,0.00,Weather View 32 v70,2013-08-25 19:00:00,
2013-08-25 12:10:00,83.8,0.0,29.94,SW,228,6.0,14.0,0,0.00,,,0.00,Weather View 32 v70,2013-08-25 19:10:00,
2013-08-25 12:20:00,83.9,0.0,29.94,SSW,195,9.0,14.0,0,0.00,,,0.00,Weather View 32 v70,2013-08-25 19:20:00,
2013-08-25 12:30:00,84.4,0.0,29.94,SSW,195,7.0,14.0,0,0.00,,,0.00,Weather View 32 v70,2013-08-25 19:30:00,
2013-08-25 12:40:00,84.1,0.0,29.94,SW,232,7.0,14.0,0,0.00,,,0.00,Weather View 32 v70,2013-08-25 19:40:00,
2013-08-25 12:50:00,86.0,0.0,29.93,SSE,152,4.0,14.0,0,0.00,,,0.00,Weather View 32 v70,2013-08-25 19:50:00,
2013-08-25 13:00:00,85.1,0.0,29.93,WSW,238,11.0,15.0,0,0.00,,,0.00,Weather View 32 v70,2013-08-25 20:00:00,
2013-08-25 13:10:00,85.9,0.0,29.93,SW,215,5.0,15.0,0,0.00,,,0.00,Weather View 32 v70,2013-08-25 20:10:00,
2013-08-25 13:20:00,85.4,0.0,29.93,WSW,255,6.0,16.0,0,0.00,,,0.00,Weather View 32 v70,2013-08-25 20:20:00,
2013-08-25 13:25:00,85.4,0.0,29.93,WSW,255,6.0,16.0,0,0.00,,,0.00,Weather View 32 v70,2013-08-25 20:25:00,
2013-08-25 13:40:00,85.5,0.0,29.93,WSW,246,7.0,18.0,0,0.00,,,0.00,Weather View 32 v70,2013-08-25 20:40:00,
2013-08-25 13:50:00,85.6,0.0,29.93,SW,217,1.0,18.0,0,0.00,,,0.00,Weather View 32 v70,2013-08-25 20:50:00,
2013-08-25 14:00:00,87.1,0.0,29.93,WSW,245,8.0,18.0,0,0.00,,,0.00,Weather View 32 v70,2013-08-25 21:00:00,
2013-08-25 14:10:00,87.2,0.0,29.93,South,181,7.0,18.0,0,0.00,,,0.00,Weather View 32 v70,2013-08-25 21:10:00,
2013-08-25 14:20:00,85.4,0.0,29.93,WSW,256,3.0,18.0,0,0.00,,,0.00,Weather View 32 v70,2013-08-25 21:20:00,
2013-08-25 14:26:00,85.4,0.0,29.93,WSW,256,3.0,18.0,0,0.00,,,0.00,Weather View 32 v70,2013-08-25 21:26:00,
2013-08-25 14:40:00,86.8,0.0,29.92,SW,221,8.0,15.0,0,0.00,,,0.00,Weather View 32 v70,2013-08-25 21:40:00,
2013-08-25 14:50:00,87.6,0.0,29.92,SW,231,5.0,16.0,0,0.00,,,0.00,Weather View 32 v70,2013-08-25 21:50:00,
2013-08-25 15:00:00,87.3,0.0,29.91,WNW,287,3.0,16.0,0,0.00,,,0.00,Weather View 32 v70,2013-08-25 22:00:00,
2013-08-25 15:10:00,86.9,0.0,29.91,WSW,238,6.0,16.0,0,0.00,,,0.00,Weather View 32 v70,2013-08-25 22:10:00,
2013-08-25 15:20:00,88.6,0.0,29.90,West,269,6.0,16.0,0,0.00,,,0.00,Weather View 32 v70,2013-08-25 22:20:00,
2013-08-25 15:26:00,88.6,0.0,29.90,West,269,6.0,16.0,0,0.00,,,0.00,Weather View 32 v70,2013-08-25 22:26:00,
2013-08-25 15:40:00,87.6,0.0,29.90,West,276,11.0,17.0,0,0.00,,,0.00,Weather View 32 v70,2013-08-25 22:40:00,
2013-08-25 15:50:00,87.2,0.0,29.90,WSW,243,7.0,17.0,0,0.00,,,0.00,Weather View 32 v70,2013-08-25 22:50:00,
2013-08-25 16:00:00,87.3,0.0,29.90,WSW,252,3.0,17.0,0,0.00,,,0.00,Weather View 32 v70,2013-08-25 23:00:00,
2013-08-25 16:10:00,86.7,0.0,29.90,WSW,252,7.0,20.0,0,0.00,,,0.00,Weather View 32 v70,2013-08-25 23:10:00,
2013-08-25 16:20:00,86.6,0.0,29.90,WNW,285,7.0,20.0,0,0.00,,,0.00,Weather View 32 v70,2013-08-25 23:20:00,
2013-08-25 16:27:00,86.6,0.0,29.90,WNW,285,7.0,20.0,0,0.00,,,0.00,Weather View 32 v70,2013-08-25 23:27:00,
2013-08-25 16:40:00,85.3,0.0,29.89,West,259,8.0,20.0,0,0.00,,,0.00,Weather View 32 v70,2013-08-25 23:40:00,
2013-08-25 16:50:00,84.7,0.0,29.89,SW,235,4.0,20.0,0,0.00,,,0.00,Weather View 32 v70,2013-08-25 23:50:00,
2013-08-25 17:00:00,84.1,0.0,29.88,West,267,9.0,20.0,0,0.00,,,0.00,Weather View 32 v70,2013-08-26 00:00:00,
2013-08-25 17:10:00,83.6,0.0,29.88,SSW,210,5.0,18.0,0,0.00,,,0.00,Weather View 32 v70,2013-08-26 00:10:00,
2013-08-25 17:20:00,83.4,0.0,29.88,West,266,6.0,20.0,0,0.00,,,0.00,Weather View 32 v70,2013-08-26 00:20:00,
2013-08-25 17:28:00,83.4,0.0,29.88,West,266,6.0,20.0,0,0.00,,,0.00,Weather View 32 v70,2013-08-26 00:28:00,
2013-08-25 17:40:00,83.0,0.0,29.88,WSW,245,6.0,20.0,0,0.00,,,0.00,Weather View 32 v70,2013-08-26 00:40:00,
2013-08-25 17:50:00,82.4,0.0,29.88,SW,233,6.0,20.0,0,0.00,,,0.00,Weather View 32 v70,2013-08-26 00:50:00,
2013-08-25 18:00:00,81.8,0.0,29.88,SSW,211,7.0,20.0,0,0.00,,,0.00,Weather View 32 v70,2013-08-26 01:00:00,
2013-08-25 18:10:00,80.4,0.0,29.88,South,174,5.0,20.0,0,0.00,,,0.00,Weather View 32 v70,2013-08-26 01:10:00,
2013-08-25 18:20:00,80.3,0.0,29.88,SSW,210,9.0,17.0,0,0.00,,,0.00,Weather View 32 v70,2013-08-26 01:20:00,
2013-08-25 18:28:00,80.3,0.0,29.88,SSW,210,9.0,17.0,0,0.00,,,0.00,Weather View 32 v70,2013-08-26 01:28:00,
2013-08-25 18:40:00,79.3,0.0,29.87,SW,235,6.0,17.0,0,0.00,,,0.00,Weather View 32 v70,2013-08-26 01:40:00,
2013-08-25 18:50:00,79.1,0.0,29.87,SW,218,3.0,17.0,0,0.00,,,0.00,Weather View 32 v70,2013-08-26 01:50:00,
2013-08-25 19:00:00,78.7,0.0,29.88,West,260,12.0,17.0,0,0.00,,,0.00,Weather View 32 v70,2013-08-26 02:00:00,
2013-08-25 19:10:00,77.0,0.0,29.88,WSW,249,8.0,17.0,0,0.00,,,0.00,Weather View 32 v70,2013-08-26 02:10:00,
2013-08-25 19:20:00,76.1,0.0,29.88,WSW,253,5.0,17.0,0,0.00,,,0.00,Weather View 32 v70,2013-08-26 02:20:00,
2013-08-25 19:29:00,76.1,0.0,29.88,WSW,253,5.0,17.0,0,0.00,,,0.00,Weather View 32 v70,2013-08-26 02:29:00,
2013-08-25 19:40:00,74.8,0.0,29.88,WSW,255,5.0,15.0,0,0.00,,,0.00,Weather View 32 v70,2013-08-26 02:40:00,
2013-08-25 19:50:00,74.8,0.0,29.88,SW,232,3.0,15.0,0,0.00,,,0.00,Weather View 32 v70,2013-08-26 02:50:00,
2013-08-25 20:00:00,74.1,0.0,29.89,WSW,248,3.0,15.0,0,0.00,,,0.00,Weather View 32 v70,2013-08-26 03:00:00,
2013-08-25 20:10:00,73.4,0.0,29.89,SW,235,2.0,15.0,0,0.00,,,0.00,Weather View 32 v70,2013-08-26 03:10:00,
2013-08-25 20:20:00,72.8,0.0,29.90,WSW,242,7.0,14.0,0,0.00,,,0.00,Weather View 32 v70,2013-08-26 03:20:00,
2013-08-25 20:29:00,72.8,0.0,29.90,WSW,242,7.0,14.0,0,0.00,,,0.00,Weather View 32 v70,2013-08-26 03:29:00,
2013-08-25 20:40:00,72.2,0.0,29.90,West,266,1.0,14.0,0,0.00,,,0.00,Weather View 32 v70,2013-08-26 03:40:00,
2013-08-25 20:50:00,71.6,0.0,29.90,SSW,195,3.0,13.0,0,0.00,,,0.00,Weather View 32 v70,2013-08-26 03:50:00,
2013-08-25 21:00:00,70.8,0.0,29.91,SW,229,6.0,12.0,0,0.00,,,0.00,Weather View 32 v70,2013-08-26 04:00:00,
2013-08-25 21:10:00,69.8,0.0,29.91,SSW,195,5.0,12.0,0,0.00,,,0.00,Weather View 32 v70,2013-08-26 04:10:00,
2013-08-25 21:20:00,69.4,0.0,29.91,SSW,193,7.0,12.0,0,0.00,,,0.00,Weather View 32 v70,2013-08-26 04:20:00,
2013-08-25 21:30:00,69.0,0.0,29.92,WSW,243,2.0,10.0,0,0.00,,,0.00,Weather View 32 v70,2013-08-26 04:30:00,
2013-08-25 21:40:00,68.5,0.0,29.92,SW,236,3.0,10.0,0,0.00,,,0.00,Weather View 32 v70,2013-08-26 04:40:00,
2013-08-25 21:50:00,67.7,0.0,29.93,WSW,256,3.0,13.0,0,0.00,,,0.00,Weather View 32 v70,2013-08-26 04:50:00,
2013-08-25 22:00:00,67.1,0.0,29.93,WSW,239,3.0,13.0,0,0.00,,,0.00,Weather View 32 v70,2013-08-26 05:00:00,
2013-08-25 22:10:00,67.0,0.0,29.94,West,273,5.0,13.0,0,0.00,,,0.00,Weather View 32 v70,2013-08-26 05:10:00,
2013-08-25 22:20:00,67.4,0.0,29.94,SSW,195,7.0,13.0,0,0.00,,,0.00,Weather View 32 v70,2013-08-26 05:20:00,
2013-08-25 22:30:00,66.9,0.0,29.94,SW,229,0.0,13.0,0,0.00,,,0.00,Weather View 32 v70,2013-08-26 05:30:00,
2013-08-25 22:40:00,67.2,0.0,29.95,NNW,328,2.0,13.0,0,0.00,,,0.00,Weather View 32 v70,2013-08-26 05:40:00,
2013-08-25 22:50:00,67.1,0.0,29.95,WNW,283,3.0,13.0,0,0.00,,,0.00,Weather View 32 v70,2013-08-26 05:50:00,
2013-08-25 23:00:00,66.7,0.0,29.95,West,280,2.0,10.0,0,0.00,,,0.00,Weather View 32 v70,2013-08-26 06:00:00,
2013-08-25 23:10:00,65.9,0.0,29.95,WNW,290,3.0,10.0,0,0.00,,,0.00,Weather View 32 v70,2013-08-26 06:10:00,
2013-08-25 23:20:00,65.9,0.0,29.96,SW,217,1.0,9.0,0,0.00,,,0.00,Weather View 32 v70,2013-08-26 06:20:00,
2013-08-25 23:30:00,64.9,0.0,29.96,SSW,193,1.0,9.0,0,0.00,,,0.00,Weather View 32 v70,2013-08-26 06:30:00,
2013-08-25 23:40:00,64.8,0.0,29.97,South,186,1.0,9.0,0,0.00,,,0.00,Weather View 32 v70,2013-08-26 06:40:00,
2013-08-25 23:50:00,64.9,0.0,29.97,WSW,252,3.0,9.0,0,0.00,,,0.00,Weather View 32 v70,2013-08-26 06:50:00,